Change the Weather History Date:

Thursday, October 4, 2012

  Actual Average (KMRH) Record (KMRH)
Temperature  
Mean Temperature 80 °F -  
Max Temperature 84 °F 79 °F 89 °F (1986)
Min Temperature 75 °F 58 °F 39 °F (1974)
Cooling Degree Days 14    
Growing Degree Days 30 (Base 50)    
Moisture  
Dew Point 71 °F    
Average Humidity 77    
Maximum Humidity 94    
Minimum Humidity 57    
Precipitation  
Precipitation 0.01 in - - ()
Sea Level Pressure  
Sea Level Pressure 30.18 in    
Wind  
Wind Speed 5 mph (SW)    
Max Wind Speed 7 mph    
Max Gust Speed -    
Visibility 9 miles    
Events      
Averages and records for this station are not official NWS values.
T = Trace of Precipitation, MM = Missing Value Source: NWS Daily Summary

Daily Weather History Graph

Daily Weather History Graph

Search for Another Location

Airport or City:

Trip Planner

Search our weather history database for the weather conditions in past years. The results will help you decide how hot, cold, wet, or windy it might be!

Date:

Astronomy

Oct. 04, 2012 Rise Set
Actual Time 7:03 AM EDT 6:44 PM EDT
Civil Twilight 6:38 AM EDT 7:10 PM EDT
Nautical Twilight 6:08 AM EDT 7:39 PM EDT
Astronomical Twilight 5:39 AM EDT 8:08 PM EDT
Moon 9:29 PM EDT 11:08 AM EDT
Length of Visible Light 12h 32m
Length of Day
11h 41m
Waning Gibbous, 82% of the Moon is Illuminated
Oct 4
Waning Gibbous
Oct 8
Last Quarter
Oct 15
New
Oct 21
First Quarter
Oct 29
Full

Hourly Weather History & Observations

Time (EDT) Temp. Heat Index Dew Point Humidity Pressure Visibility Wind Dir Wind Speed Gust Speed Precip Events Conditions
12:56 AM 78.1 °F - 75.0 °F 90% 30.19 in 10.0 mi SW 6.9 mph - N/A   Clear
1:56 AM 77.0 °F - 75.0 °F 94% 30.19 in 9.0 mi WSW 5.8 mph - N/A   Clear
2:56 AM 77.0 °F - 73.9 °F 90% 30.18 in 9.0 mi SW 5.8 mph - N/A   Clear
3:56 AM 75.9 °F - 73.9 °F 94% 30.17 in 8.0 mi WSW 3.5 mph - N/A   Clear
4:56 AM 75.9 °F - 73.0 °F 91% 30.19 in 8.0 mi SW 5.8 mph - N/A   Clear
5:56 AM 75.0 °F - 72.0 °F 90% 30.20 in 6.0 mi SW 3.5 mph - N/A   Clear
6:56 AM 75.0 °F - 72.0 °F 90% 30.21 in 5.0 mi SSW 3.5 mph - 0.01 in   Clear
7:56 AM 75.9 °F - 73.0 °F 91% 30.22 in 4.0 mi Calm Calm - N/A   Clear
8:56 AM 75.9 °F - 73.0 °F 91% 30.22 in 8.0 mi North - - N/A   Clear
9:56 AM 80.1 °F 83.8 °F 72.0 °F 76% 30.23 in 10.0 mi North - - N/A   Clear
10:56 AM 82.0 °F 85.9 °F 70.0 °F 67% 30.23 in 10.0 mi North - - N/A   Clear
11:56 AM 84.0 °F 87.8 °F 69.1 °F 61% 30.22 in 10.0 mi North - - N/A   Partly Cloudy
12:56 PM 82.9 °F 86.5 °F 69.1 °F 63% 30.20 in 10.0 mi North - - N/A   Partly Cloudy
1:56 PM 84.9 °F 88.8 °F 69.1 °F 59% 30.18 in 10.0 mi North - - N/A   Mostly Cloudy
2:56 PM 84.0 °F 87.8 °F 69.1 °F 61% 30.16 in 10.0 mi North - - N/A   Partly Cloudy
3:56 PM 84.9 °F 88.2 °F 68.0 °F 57% 30.16 in 9.0 mi North - - N/A   Clear
4:56 PM 84.0 °F 87.0 °F 68.0 °F 58% 30.15 in 10.0 mi North - - N/A   Clear
5:45 PM 84.2 °F 87.3 °F 68.0 °F 58% 30.14 in 10.0 mi North - - N/A   Partly Cloudy
5:56 PM 82.9 °F 85.8 °F 68.0 °F 60% 30.15 in 10.0 mi North - - N/A   Clear
6:56 PM 79.0 °F - 72.0 °F 79% 30.15 in 10.0 mi North - - N/A   Clear
7:56 PM 78.1 °F - 73.0 °F 84% 30.15 in 10.0 mi North - - N/A   Clear
8:56 PM 78.1 °F - 70.0 °F 76% 30.16 in 10.0 mi North - - N/A   Partly Cloudy
9:56 PM 77.0 °F - 70.0 °F 79% 30.17 in 10.0 mi North - - N/A   Scattered Clouds
10:56 PM 75.9 °F - 68.0 °F 76% 30.18 in 10.0 mi North - - N/A   Partly Cloudy
11:56 PM 75.0 °F - 68.0 °F 79% 30.17 in 10.0 mi North - - N/A   Clear